• In Netherlands
  • List of Countries
  • For 7 days
  • Water Temperature
  • Satellite Maps
  • Weather Map
  • Weather Widgets
  • user-avatar
    Login

    Hourly Weather Sozopol

    Today, 24 March, Friday

    Time Temperature Precipitation Wind Pressure Humidity
    00:00 +6°C° 0 mm 1 mps 764 mmHg 87%
    01:00 +6°C° 0 mm 1 mps 764 mmHg 87%
    02:00 +5°C° 0 mm 1 mps 764 mmHg 86%
    03:00 +5°C° 0 mm 1 mps 764 mmHg 86%
    04:00 +5°C° 0 mm 1 mps 764 mmHg 86%
    05:00 +5°C° 0 mm 1 mps 764 mmHg 86%
    06:00 +7°C° 0 mm 1 mps 764 mmHg 81%
    07:00 +8°C° 0 mm 1 mps 764 mmHg 76%
    08:00 +10°C° 0 mm 1 mps 764 mmHg 71%
    09:00 +12°C° 0 mm 1 mps 764 mmHg 66%
    10:00 +13°C° 0 mm 1 mps 764 mmHg 60%
    11:00 +15°C° 0 mm 2 mps 764 mmHg 54%
    12:00 +15°C° 0 mm 2 mps 764 mmHg 53%
    13:00 +16°C° 0 mm 2 mps 764 mmHg 51%
    14:00 +17°C° 0 mm 2 mps 763 mmHg 50%
    15:00 +16°C° 0 mm 2 mps 763 mmHg 54%
    16:00 +16°C° 0 mm 2 mps 763 mmHg 58%
    17:00 +15°C° 0 mm 2 mps 763 mmHg 62%
    18:00 +13°C° 0 mm 2 mps 763 mmHg 69%
    19:00 +11°C° 0 mm 1 mps 763 mmHg 75%
    20:00 +8°C° 0 mm 1 mps 763 mmHg 82%
    21:00 +8°C° 0 mm 1 mps 762 mmHg 82%
    22:00 +8°C° 0 mm 1 mps 762 mmHg 81%
    23:00 +7°C° 0 mm 1 mps 762 mmHg 81%

    Tomorrow, 25 March, Saturday

    Time Temperature Precipitation Wind Pressure Humidity
    00:00 +7°C° 0 mm 1 mps 762 mmHg 81%
    01:00 +7°C° 0 mm 1 mps 762 mmHg 80%
    02:00 +7°C° 0 mm 1 mps 762 mmHg 80%
    03:00 +7°C° 0 mm 1 mps 762 mmHg 80%
    04:00 +7°C° 0 mm 1 mps 762 mmHg 80%
    05:00 +7°C° 0 mm 1 mps 762 mmHg 80%
    06:00 +9°C° 0 mm 1 mps 762 mmHg 75%
    07:00 +11°C° 0 mm 1 mps 762 mmHg 70%
    08:00 +13°C° 0 mm 2 mps 762 mmHg 66%
    09:00 +13°C° 0 mm 3 mps 762 mmHg 66%
    10:00 +13°C° 0 mm 4 mps 763 mmHg 67%
    11:00 +14°C° 0 mm 5 mps 763 mmHg 67%
    12:00 +14°C° 0 mm 5 mps 762 mmHg 69%
    13:00 +13°C° 0 mm 5 mps 762 mmHg 71%
    14:00 +13°C° 0 mm 5 mps 762 mmHg 72%
    15:00 +12°C° 0 mm 5 mps 762 mmHg 76%
    16:00 +10°C° 0 mm 5 mps 762 mmHg 80%
    17:00 +9°C° 0 mm 5 mps 761 mmHg 84%
    18:00 +8°C° 0 mm 4 mps 762 mmHg 87%
    19:00 +8°C° 0 mm 3 mps 762 mmHg 90%
    20:00 +8°C° 0 mm 3 mps 762 mmHg 93%
    21:00 +7°C° 0 mm 2 mps 762 mmHg 94%
    22:00 +8°C° 0 mm 1 mps 762 mmHg 94%
    23:00 +8°C° 0 mm 1 mps 762 mmHg 94%

    Day after tomorrow, 26 March, Sunday

    Time Temperature Precipitation Wind Pressure Humidity
    00:00 +7°C° 0 mm 1 mps 761 mmHg 94%
    01:00 +7°C° 0 mm 1 mps 761 mmHg 94%
    02:00 +7°C° 0 mm 1 mps 761 mmHg 94%
    03:00 +6°C° 0 mm 1 mps 760 mmHg 95%
    04:00 +6°C° 0 mm 1 mps 760 mmHg 95%
    05:00 +6°C° 0 mm 1 mps 759 mmHg 95%
    06:00 +8°C° 0 mm 1 mps 759 mmHg 91%
    07:00 +8°C° 0 mm 2 mps 759 mmHg 88%
    08:00 +9°C° 0 mm 2 mps 759 mmHg 84%
    09:00 +12°C° 0 mm 2 mps 758 mmHg 78%
    10:00 +14°C° 0 mm 2 mps 758 mmHg 73%
    11:00 +15°C° 0 mm 2 mps 758 mmHg 67%
    12:00 +16°C° 0.1 mm 2 mps 757 mmHg 67%
    13:00 +16°C° 0.1 mm 2 mps 757 mmHg 67%
    14:00 +16°C° 0.1 mm 3 mps 756 mmHg 67%
    15:00 +14°C° 0.3 mm 3 mps 756 mmHg 69%
    16:00 +14°C° 0.3 mm 3 mps 756 mmHg 72%
    17:00 +14°C° 0.3 mm 3 mps 756 mmHg 74%
    18:00 +12°C° 0.3 mm 4 mps 756 mmHg 79%
    19:00 +10°C° 0.3 mm 5 mps 757 mmHg 84%
    20:00 +8°C° 0.3 mm 6 mps 757 mmHg 89%
    21:00 +8°C° 0.3 mm 6 mps 758 mmHg 89%
    22:00 +7°C° 0.3 mm 6 mps 758 mmHg 88%
    23:00 +7°C° 0.3 mm 6 mps 758 mmHg 88%

    27 March, Monday

    Time Temperature Precipitation Wind Pressure Humidity
    00:00 +5°C° 0.4 mm 6 mps 759 mmHg 87%
    01:00 +5°C° 0.4 mm 6 mps 759 mmHg 86%
    02:00 +5°C° 0.4 mm 6 mps 759 mmHg 86%
    03:00 +5°C° 0.2 mm 6 mps 759 mmHg 85%
    04:00 +4°C° 0.2 mm 6 mps 760 mmHg 85%
    05:00 +4°C° 0.2 mm 6 mps 760 mmHg 84%
    06:00 +4°C° 0 mm 6 mps 760 mmHg 83%
    07:00 +4°C° 0 mm 6 mps 761 mmHg 82%
    08:00 +4°C° 0 mm 6 mps 761 mmHg 81%
    09:00 +5°C° 0 mm 6 mps 762 mmHg 76%
    10:00 +7°C° 0 mm 6 mps 762 mmHg 72%
    11:00 +8°C° 0 mm 6 mps 762 mmHg 67%
    12:00 +9°C° 0 mm 5 mps 762 mmHg 65%
    13:00 +9°C° 0 mm 5 mps 762 mmHg 62%
    14:00 +11°C° 0 mm 4 mps 762 mmHg 60%
    15:00 +11°C° 0 mm 4 mps 762 mmHg 61%
    16:00 +10°C° 0 mm 3 mps 762 mmHg 63%
    17:00 +10°C° 0 mm 3 mps 761 mmHg 64%
    18:00 +8°C° 0 mm 2 mps 762 mmHg 71%
    19:00 +7°C° 0 mm 2 mps 762 mmHg 77%
    20:00 +6°C° 0 mm 1 mps 763 mmHg 84%
    21:00 +6°C° 0 mm 1 mps 763 mmHg 84%
    22:00 +6°C° 0 mm 1 mps 763 mmHg 83%
    23:00 +5°C° 0 mm 1 mps 764 mmHg 83%

    28 March, Tuesday

    Time Temperature Precipitation Wind Pressure Humidity
    00:00 +4°C° 0 mm 2 mps 764 mmHg 81%
    01:00 +4°C° 0 mm 2 mps 764 mmHg 79%
    02:00 +3°C° 0 mm 3 mps 764 mmHg 77%
    03:00 +3°C° 0 mm 3 mps 764 mmHg 77%
    04:00 +3°C° 0 mm 4 mps 764 mmHg 76%
    05:00 +2°C° 0 mm 5 mps 764 mmHg 76%
    06:00 +3°C° 0 mm 5 mps 765 mmHg 75%
    07:00 +5°C° 0 mm 5 mps 765 mmHg 73%
    08:00 +5°C° 0 mm 6 mps 765 mmHg 72%
    09:00 +7°C° 0 mm 6 mps 766 mmHg 67%
    10:00 +8°C° 0 mm 6 mps 766 mmHg 63%
    11:00 +9°C° 0 mm 6 mps 766 mmHg 58%
    12:00 +9°C° 0 mm 5 mps 766 mmHg 57%
    13:00 +10°C° 0 mm 5 mps 765 mmHg 55%
    14:00 +11°C° 0 mm 4 mps 765 mmHg 54%
    15:00 +11°C° 0 mm 4 mps 765 mmHg 56%
    16:00 +10°C° 0 mm 4 mps 765 mmHg 59%
    17:00 +10°C° 0 mm 3 mps 764 mmHg 61%
    18:00 +8°C° 0 mm 3 mps 765 mmHg 67%
    19:00 +6°C° 0 mm 2 mps 765 mmHg 73%
    20:00 +6°C° 0 mm 1 mps 765 mmHg 79%
    21:00 +5°C° 0 mm 1 mps 765 mmHg 80%
    22:00 +5°C° 0 mm 1 mps 765 mmHg 81%
    23:00 +5°C° 0 mm 1 mps 765 mmHg 83%

    29 March, Wednesday

    Time Temperature Precipitation Wind Pressure Humidity
    00:00 +5°C° 0 mm 1 mps 765 mmHg 82%
    01:00 +5°C° 0 mm 1 mps 765 mmHg 82%
    02:00 +4°C° 0 mm 2 mps 765 mmHg 82%
    03:00 +4°C° 0 mm 2 mps 765 mmHg 81%
    04:00 +4°C° 0 mm 2 mps 765 mmHg 81%
    05:00 +4°C° 0 mm 2 mps 765 mmHg 81%
    06:00 +6°C° 0 mm 2 mps 766 mmHg 77%
    07:00 +8°C° 0 mm 2 mps 766 mmHg 72%
    08:00 +9°C° 0 mm 3 mps 766 mmHg 67%
    09:00 +11°C° 0 mm 3 mps 766 mmHg 63%
    10:00 +13°C° 0 mm 3 mps 766 mmHg 59%
    11:00 +14°C° 0 mm 4 mps 766 mmHg 55%
    12:00 +15°C° 0 mm 4 mps 766 mmHg 55%
    13:00 +15°C° 0 mm 4 mps 766 mmHg 55%
    14:00 +15°C° 0 mm 4 mps 766 mmHg 55%
    15:00 +14°C° 0 mm 4 mps 766 mmHg 58%
    16:00 +14°C° 0 mm 4 mps 766 mmHg 62%
    17:00 +13°C° 0 mm 4 mps 766 mmHg 65%
    18:00 +11°C° 0 mm 3 mps 766 mmHg 72%
    19:00 +9°C° 0 mm 3 mps 766 mmHg 79%
    20:00 +7°C° 0 mm 2 mps 766 mmHg 86%
    21:00 +7°C° 0 mm 2 mps 766 mmHg 87%
    22:00 +7°C° 0 mm 1 mps 767 mmHg 88%
    23:00 +7°C° 0 mm 1 mps 767 mmHg 89%
    Show more